Regional Weather Roundup
Issued by NWS

Home | Current Version | Previous Version | Text Only | Print | Product List | Glossary On
Versions: 1 2 3 4 5 6 7 8 9 10 11 12 13 14 15 16 17 18 19 20 21 22 23 24 25 26 27
000
ASUS42 KFFC 242303
RWRGA
WEATHER ROUNDUP FOR GEORGIA
NATIONAL WEATHER SERVICE PEACHTREE CITY GA
700 PM EDT FRI OCT 24 2014

NOTE: "FAIR" INDICATES FEW OR NO CLOUDS BELOW 12,000 FEET WITH NO
SIGNIFICANT WEATHER AND/OR OBSTRUCTIONS TO VISIBILITY.

* = USE WITH CAUTION. THE STATIONS MARKED WITH AN ASTERISK MAY NOT
REPORT WEATHER SUCH AS PRECIPITATION, FOG, OR THUNDER AND ARE NOT
QUALITY CONTROLLED BY NWS.

THE REMARK "TC" DENOTES TEMPERATURE READING IN DEGREES CELSIUS.

GAZ001>058-250000-
NORTH GEORGIA

CITY           SKY/WX    TMP DP  RH WIND       PRES   REMARKS
ATLANTA        CLEAR     67  42  40 NW7       30.00F
ATHENS         CLEAR     61  50  67 CALM      29.99S
CHAMBLEE       CLEAR     63  42  46 W6        30.01R
PEACHTREE CITY CLEAR     59  52  77 CALM      30.01S
ROME           CLEAR     62  40  44 W3        30.02R
WEST ATLANTA   CLEAR     65  44  46 NW3       30.01R
GAINESVILLE    CLEAR     65  43  44 SW5       30.01R
CARTERSVILLE   CLEAR     62  44  51 CALM      30.02R


CITY           SKY/WX    TMP DP  RH WIND       PRES   REMARKS
DALTON*        CLEAR     61  46  59 CALM      30.02S
LAWRENCEVILLE* CLEAR     66  39  37 CALM      30.00S
MARIETTA       PTCLDY    64  41  44 NW6       30.01R
KENNESAW*      CLEAR     66  39  37 N6        30.03R
$$

GAZ059>098-102>109-250000-
CENTRAL GEORGIA

CITY           SKY/WX    TMP DP  RH WIND       PRES   REMARKS
AUGUSTA-BUSH   PTCLDY    61  48  62 CALM      29.98R
AUGUSTA-DANIEL PTCLDY    69  41  36 N6        29.99S
COLUMBUS       CLEAR     71  44  37 N3        30.00S
MACON          CLEAR     63  49  60 CALM      29.98S
ROBINS AFB     CLEAR     63  54  74 SE3       29.97F


CITY           SKY/WX    TMP DP  RH WIND       PRES   REMARKS
LAGRANGE*      CLEAR     64  54  70 CALM      30.01S
SYLVANIA*      CLEAR     69  58  69 CALM      29.99S
MILLEDGEVILLE* CLEAR     63  55  77 CALM      29.99R
$$

GAZ099>101-110>166-250000-
SOUTH GEORGIA

CITY           SKY/WX    TMP DP  RH WIND       PRES   REMARKS
SAVANNAH       PTCLDY    68  47  46 CALM      29.99R
VALDOSTA       CLEAR     65  48  54 CALM      29.98R
ALMA           CLEAR     61  50  67 CALM      29.98R
ST SIMONS      CLEAR     64  52  64 CALM      29.99R
FT STEWART     PTCLDY    63  53  68 CALM      29.98R
ALBANY         CLEAR     67  55  65 CALM      30.00S
HUNTER AFB     CLEAR     61  51  70 CALM      29.97R
MOODY AFB      CLEAR     65  50  58 NE2       29.99R
BRUNSWICK      CLEAR     61  54  77 CALM      29.99R


CITY           SKY/WX    TMP DP  RH WIND       PRES   REMARKS
BAINBRIDGE*    CLEAR     72  52  49 CALM      29.99S
MOULTRIE*      CLEAR     70  50  49 CALM      30.00R
VIDALIA*       CLEAR     63  52  67 CALM      29.99S
WAYCROSS*      CLEAR     71  51  50 CALM      29.98R
DOUGLAS*       CLEAR     68  46  45 CALM      30.00R
$$



USA.gov is the U.S. government's official web portal to all federal, state and local government web resources and services.